EW5804 Weather Reports


Display with metric or nautical units.
time (UTC)temp
F
wind
direction
speed
MPH
gust
MPH
rain 1hr
in
rain 24hr
in
rain mn
in
humidity
%
barometer
mb
20260507084915 66 248 2.0 6.0 0.02 0.07 0.07 91 1009.6
20260507084410 66 241 2.0 9.0 0.02 0.07 0.07 90 1009.5
20260507084401 66 219 2.0 9.0 0.01 0.06 0.06 90 1009.6
20260507083355 66 168 1.0 5.0 0.00 0.05 0.05 90 1009.9
20260507083113 66 197 2.0 5.0 0.00 0.05 0.05 90 1009.9
20260507082344 66 208 3.0 7.0 0.00 0.05 0.05 90 1009.9
20260507082100 66 280 3.0 7.0 0.00 0.05 0.05 91 1010.0
20260507081331 66 211 3.0 7.0 0.00 0.05 0.05 90 1009.8
20260507080826 66 198 2.0 8.0 0.00 0.05 0.05 90 1009.7
20260507080321 66 210 2.0 8.0 0.00 0.05 0.05 90 1009.7
20260507075820 66 195 1.0 5.0 0.00 0.05 0.05 90 1009.7
20260507075322 66 190 2.0 6.0 0.00 0.05 0.05 90 1009.8
20260507074820 66 169 2.0 6.0 0.00 0.05 0.05 90 1010.0
20260507074321 66 192 2.0 5.0 0.00 0.05 0.05 90 1010.2
20260507074038 66 203 2.0 5.0 0.00 0.05 0.05 90 1010.2
20260507073321 66 229 2.0 5.0 0.00 0.05 0.05 90 1010.4
20260507072821 66 207 2.0 5.0 0.00 0.05 0.05 90 1010.4
20260507072318 66 219 2.0 5.0 0.00 0.05 0.05 90 1010.3
20260507071816 66 187 1.0 4.0 0.00 0.05 0.05 90 1010.3
20260507071314 66 177 2.0 4.0 0.00 0.05 0.05 90 1010.2
20260507071033 66 192 1.0 6.0 0.00 0.05 0.05 90 1010.3
20260507070314 66 211 1.0 6.0 0.01 0.05 0.05 90 1010.5
20260507065812 66 215 1.0 5.0 0.02 0.05 0.05 90 1010.4
20260507065310 66 193 1.0 5.0 0.02 0.05 0.05 90 1010.4
20260507064808 66 217 1.0 4.0 0.02 0.05 0.05 90 1010.4
20260507064309 66 222 1.0 4.0 0.03 0.05 0.05 89 1010.3
20260507063809 66 187 2.0 4.0 0.03 0.05 0.05 89 1010.4
20260507063308 66 235 2.0 4.0 0.03 0.05 0.05 89 1010.1
20260507062805 66 232 2.0 4.0 0.03 0.05 0.05 89 1010.2
20260507062531 66 254 2.0 4.0 0.03 0.05 0.05 89 1010.1
20260507061804 66 193 2.0 4.0 0.03 0.05 0.05 89 1010.0
20260507061306 66 208 1.0 4.0 0.04 0.05 0.05 89 1010.0
20260507060804 67 207 1.0 3.0 0.03 0.04 0.05 89 1009.8
20260507060305 66 203 1.0 4.0 0.03 0.04 0.04 89 1009.7
20260507055804 67 196 2.0 5.0 0.02 0.03 0.03 89 1010.0
20260507055306 67 198 2.0 5.0 0.03 0.03 0.03 89 1010.5
20260507054804 67 153 2.0 5.0 0.03 0.03 0.03 88 1010.8
20260507054300 67 236 2.0 4.0 0.02 0.02 0.02 88 1010.9
20260507053800 67 181 2.0 6.0 0.02 0.02 0.02 88 1011.2
20260507053740 67 207 2.0 6.0 0.02 0.02 0.02 88 1011.2
20260507052800 67 203 1.0 3.0 0.02 0.02 0.02 87 1011.4
20260507052300 67 203 1.0 6.0 0.02 0.02 0.02 87 1011.5
20260507051800 67 261 2.0 6.0 0.02 0.02 0.02 87 1011.6
20260507051300 67 213 2.0 6.0 0.01 0.01 0.02 87 1011.6
20260507050801 67 239 2.0 6.0 0.01 0.01 0.01 87 1011.6
20260507050300 67 200 2.0 4.0 0.01 0.01 0.01 87 1011.6
20260507045755 67 229 2.0 4.0 0.01 0.01 0.01 86 1011.7
20260507045257 67 209 1.0 4.0 0.00 0.00 0.00 86 1011.6
20260507044756 67 191 1.0 4.0 0.00 0.00 0.00 86 1011.4
20260507044255 67 227 1.0 4.0 0.00 0.00 0.00 85 1011.3
20260507043756 68 227 1.0 4.0 0.00 0.00 0.00 85 1011.2
20260507043516 68 197 1.0 3.0 0.00 0.00 0.00 84 1011.1
20260507042754 68 197 2.0 4.0 0.00 0.00 0.00 84 1011.0
20260507042255 68 215 2.0 4.0 0.00 0.00 0.00 84 1010.9
20260507042248 68 226 2.0 4.0 0.00 0.00 0.00 83 1010.9
20260507041242 68 232 2.0 4.0 0.00 0.00 0.00 83 1011.1
20260507040733 68 217 1.0 5.0 0.00 0.00 0.00 82 1011.1
20260507040236 68 206 1.0 5.0 0.00 0.00 0.00 82 1011.1
20260507035729 68 239 1.0 3.0 0.00 0.00 0.00 82 1011.2
20260507035231 68 257 2.0 5.0 0.00 0.00 0.00 82 1011.2
20260507034948 68 258 2.0 7.0 0.00 0.00 0.00 82 1011.0
20260507034230 68 184 2.0 7.0 0.00 0.00 0.00 82 1011.1
20260507033730 68 199 1.0 4.0 0.00 0.00 0.00 81 1011.0
20260507033226 68 178 1.0 4.0 0.00 0.00 0.00 81 1010.9
20260507032727 69 240 1.0 3.0 0.00 0.00 0.00 81 1010.8
20260507032227 69 242 1.0 3.0 0.00 0.00 0.00 81 1010.7
20260507031725 68 246 1.0 5.0 0.00 0.00 0.00 81 1010.8
20260507031225 68 231 1.0 5.0 0.00 0.00 0.00 82 1010.7
20260507030724 68 190 1.0 6.0 0.00 0.00 0.00 81 1010.6
20260507030222 68 239 2.0 6.0 0.00 0.00 0.00 81 1010.9
20260507025721 68 211 2.0 5.0 0.00 0.00 0.00 81 1010.6
20260507025222 68 217 2.0 6.0 0.00 0.00 0.00 81 1010.9
20260507024723 68 233 3.0 7.0 0.00 0.00 0.00 81 1010.9
20260507024221 68 190 2.0 7.0 0.00 0.00 0.00 81 1011.1
20260507023722 68 229 2.0 5.0 0.00 0.00 0.00 82 1011.2
20260507023234 68 240 2.0 7.0 0.00 0.00 0.00 82 1011.3
20260507022722 68 215 2.0 7.0 0.00 0.00 0.00 81 1011.2
20260507022221 68 229 1.0 7.0 0.00 0.00 0.00 81 1011.2
20260507021722 68 209 1.0 3.0 0.00 0.00 0.00 81 1011.4
20260507021235 68 209 1.0 3.0 0.00 0.00 0.00 81 1011.5
20260507020946 68 209 0.0 3.0 0.00 0.00 0.00 81 1011.3
20260507020218 68 208 0.0 1.0 0.00 0.00 0.00 81 1011.2
20260507015719 68 207 1.0 4.0 0.00 0.00 0.00 80 1011.2
20260507015218 68 207 1.0 4.0 0.00 0.00 0.00 80 1011.0
20260507014717 68 215 1.0 3.0 0.00 0.00 0.00 81 1011.1
20260507014435 68 219 1.0 5.0 0.00 0.00 0.00 81 1011.1
20260507013732 68 239 2.0 6.0 0.00 0.00 0.00 81 1011.2
20260507013218 68 257 2.0 6.0 0.00 0.00 0.00 81 1011.2
20260507012717 68 243 1.0 3.0 0.00 0.00 0.00 81 1011.2
20260507012215 68 203 1.0 4.0 0.00 0.00 0.00 80 1011.0
20260507011714 68 199 1.0 4.0 0.00 0.00 0.00 79 1010.8
20260507011213 69 216 1.0 3.0 0.00 0.00 0.00 79 1011.0
20260507010713 69 228 1.0 3.0 0.00 0.00 0.00 79 1011.0
20260507010213 69 228 0.0 4.0 0.00 0.00 0.00 78 1011.0
20260507005714 69 218 0.0 4.0 0.00 0.00 0.00 78 1011.0
20260507005431 70 200 1.0 4.0 0.00 0.00 0.00 78 1011.1
20260507004714 70 199 0.0 4.0 0.00 0.00 0.00 77 1011.1
20260507004214 70 209 0.0 3.0 0.00 0.00 0.00 77 1011.3
20260507003713 71 209 0.0 3.0 0.00 0.00 0.00 76 1011.3
20260507003215 71 189 1.0 6.0 0.00 0.00 0.00 76 1011.4
20260507002715 71 188 1.0 6.0 0.00 0.00 0.00 75 1011.4
20260507002216 71 239 1.0 3.0 0.00 0.00 0.00 75 1011.3
20260507001716 72 240 1.0 3.0 0.00 0.00 0.00 75 1011.1
20260507001213 72 219 1.0 2.0 0.00 0.00 0.00 74 1010.9
20260507000712 72 219 1.0 2.0 0.00 0.00 0.00 73 1011.0
20260507000212 72 220 1.0 6.0 0.00 0.00 0.00 73 1011.0
20260506235707 73 220 1.0 6.0 0.00 0.00 0.00 73 1010.9
20260506235207 73 208 1.0 6.0 0.00 0.00 0.00 73 1010.8
20260506234708 73 205 2.0 6.0 0.00 0.00 0.00 72 1010.8
20260506234420 74 203 2.0 5.0 0.00 0.00 0.00 72 1010.6
20260506233653 74 228 2.0 7.0 0.00 0.00 0.00 71 1010.5
20260506233146 74 213 1.0 7.0 0.00 0.00 0.00 71 1010.5
20260506232641 74 207 2.0 7.0 0.00 0.00 0.00 71 1010.6
20260506232135 74 202 1.0 3.0 0.00 0.00 0.00 70 1010.5
20260506231629 75 240 1.0 3.0 0.00 0.00 0.00 70 1010.4
20260506231123 75 239 2.0 7.0 0.00 0.00 0.00 69 1010.3
20260506230617 75 253 2.0 7.0 0.00 0.00 0.00 69 1010.4
20260506230112 75 220 3.0 7.0 0.00 0.00 0.00 69 1010.4
20260506230055 75 203 2.0 7.0 0.00 0.00 0.00 68 1010.4
20260506225059 76 181 2.0 7.0 0.00 0.00 0.00 68 1010.3
20260506224554 76 196 2.0 8.0 0.00 0.00 0.00 68 1010.5
20260506224309 76 261 2.0 8.0 0.00 0.00 0.00 67 1010.4
20260506223541 76 249 3.0 9.0 0.00 0.00 0.00 67 1010.3
20260506223254 76 199 4.0 12.0 0.00 0.00 0.00 66 1010.3
20260506222529 76 224 4.0 14.0 0.00 0.00 0.00 66 1010.4
20260506222023 76 236 4.0 14.0 0.00 0.00 0.00 66 1010.6
20260506221517 77 197 3.0 13.0 0.00 0.00 0.00 66 1010.5
20260506221010 76 204 3.0 13.0 0.00 0.00 0.00 66 1010.6
20260506220505 76 170 3.0 10.0 0.00 0.00 0.00 66 1010.6
20260506220000 76 256 3.0 10.0 0.00 0.00 0.00 66 1010.5
20260506215453 76 255 3.0 14.0 0.00 0.00 0.00 66 1010.5
20260506214947 76 203 3.0 14.0 0.00 0.00 0.00 65 1010.5
20260506214708 76 238 2.0 9.0 0.00 0.00 0.00 65 1010.3
20260506213935 76 268 3.0 10.0 0.00 0.00 0.00 65 1010.1
20260506213428 76 270 4.0 10.0 0.00 0.00 0.00 65 1010.1
20260506213140 76 211 3.0 8.0 0.00 0.00 0.00 66 1010.0
20260506212416 76 221 4.0 11.0 0.00 0.00 0.00 66 1010.1
20260506211912 76 216 4.0 11.0 0.00 0.00 0.00 66 1010.1
20260506211627 75 254 3.0 8.0 0.00 0.00 0.00 67 1010.2
20260506210859 75 265 4.0 12.0 0.00 0.00 0.00 67 1009.9
20260506210353 75 193 4.0 11.0 0.00 0.00 0.00 68 1009.9
20260506205848 76 132 4.0 11.0 0.00 0.00 0.00 67 1010.2
20260506205340 76 149 4.0 11.0 0.00 0.00 0.00 67 1010.0
20260506204835 76 192 4.0 11.0 0.00 0.00 0.00 66 1010.1
20260506204328 76 182 4.0 10.0 0.00 0.00 0.00 66 1010.1
20260506203824 76 211 4.0 10.0 0.00 0.00 0.00 66 1010.3
20260506203317 76 199 4.0 12.0 0.00 0.00 0.00 66 1010.2
20260506203032 76 176 5.0 12.0 0.00 0.00 0.00 65 1010.1
20260506202306 76 186 6.0 17.0 0.00 0.00 0.00 66 1010.2
20260506202252 76 176 6.0 17.0 0.00 0.00 0.00 65 1010.2
20260506201515 77 162 5.0 15.0 0.00 0.00 0.00 65 1010.4
20260506200746 77 131 5.0 18.0 0.00 0.00 0.00 64 1010.4
20260506200245 77 188 6.0 18.0 0.00 0.00 0.00 63 1010.6
20260506200005 77 165 6.0 17.0 0.00 0.00 0.00 64 1010.6
20260506195242 78 114 5.0 16.0 0.00 0.00 0.00 63 1010.7
20260506194744 77 218 6.0 12.0 0.00 0.00 0.00 63 1010.9
20260506194243 77 199 5.0 13.0 0.00 0.00 0.00 64 1010.9
20260506194005 77 175 5.0 13.0 0.00 0.00 0.00 63 1011.2
20260506193243 77 196 5.0 19.0 0.00 0.00 0.00 63 1011.2
20260506192741 77 207 6.0 19.0 0.00 0.00 0.00 63 1011.3
20260506192241 77 166 5.0 17.0 0.00 0.00 0.00 64 1011.4
20260506191741 77 286 5.0 17.0 0.00 0.00 0.00 64 1011.7
20260506191242 77 170 5.0 17.0 0.00 0.00 0.00 64 1011.8
20260506190741 77 203 4.0 14.0 0.00 0.00 0.00 65 1011.8
20260506190241 77 205 5.0 14.0 0.00 0.00 0.00 66 1011.9
20260506185741 76 230 5.0 14.0 0.00 0.00 0.00 65 1011.9
20260506185240 76 202 4.0 13.0 0.00 0.00 0.00 66 1012.0
20260506184741 76 205 4.0 12.0 0.00 0.00 0.00 66 1012.0
20260506184239 77 180 4.0 12.0 0.00 0.00 0.00 66 1012.1
20260506183739 77 203 5.0 17.0 0.00 0.00 0.00 66 1012.2
20260506183232 77 64 6.0 17.0 0.00 0.00 0.00 66 1012.2
20260506183221 77 207 6.0 15.0 0.00 0.00 0.00 66 1012.2
20260506182220 77 332 6.0 14.0 0.00 0.00 0.00 66 1012.2
20260506181715 76 237 6.0 14.0 0.00 0.00 0.00 66 1012.2
20260506181209 76 192 7.0 17.0 0.00 0.00 0.00 66 1012.2
20260506180704 76 192 7.0 17.0 0.00 0.00 0.00 65 1012.3
20260506180157 76 282 6.0 14.0 0.00 0.00 0.00 68 1012.3
20260506175652 76 207 5.0 14.0 0.00 0.00 0.00 68 1012.2
20260506175144 76 167 5.0 12.0 0.00 0.00 0.00 68 1012.3
20260506174900 75 228 6.0 16.0 0.00 0.00 0.00 68 1012.3
20260506174133 76 269 7.0 17.0 0.00 0.00 0.00 68 1012.4
20260506173628 75 355 6.0 17.0 0.00 0.00 0.00 69 1012.3
20260506173121 75 191 6.0 17.0 0.00 0.00 0.00 68 1012.4
20260506172614 75 175 6.0 17.0 0.00 0.00 0.00 69 1012.7
20260506172333 75 287 5.0 17.0 0.00 0.00 0.00 69 1012.8
20260506171604 74 163 5.0 12.0 0.00 0.00 0.00 71 1012.9
20260506171057 74 159 6.0 15.0 0.00 0.00 0.00 71 1012.8
20260506170550 73 186 5.0 15.0 0.00 0.00 0.00 72 1013.0
20260506165549 73 245 5.0 12.0 0.00 0.00 0.00 72 1013.4
20260506165047 73 201 4.0 13.0 0.00 0.00 0.00 73 1013.5
20260506164547 73 191 4.0 13.0 0.00 0.00 0.00 72 1013.6
20260506164046 73 211 4.0 11.0 0.00 0.00 0.00 72 1013.6
20260506163808 72 332 4.0 16.0 0.00 0.00 0.00 73 1013.7
20260506163048 72 184 5.0 16.0 0.00 0.00 0.00 72 1013.6
20260506162546 72 279 5.0 16.0 0.00 0.00 0.00 74 1013.5
20260506162536 72 269 4.0 16.0 0.00 0.00 0.00 74 1013.5
20260506161547 71 274 4.0 14.0 0.00 0.00 0.00 74 1013.5
20260506161324 71 182 4.0 14.0 0.00 0.00 0.00 74 1013.5
20260506160544 71 218 4.0 12.0 0.00 0.00 0.00 74 1013.6
20260506160055 71 178 5.0 14.0 0.00 0.00 0.00 74 1013.7
20260506155542 71 47 4.0 14.0 0.00 0.00 0.00 75 1013.7
20260506155042 71 229 4.0 11.0 0.00 0.00 0.00 75 1013.9
20260506154542 70 153 5.0 15.0 0.00 0.00 0.00 76 1013.9
20260506154044 70 224 5.0 15.0 0.00 0.00 0.00 77 1013.9
20260506153545 69 253 5.0 15.0 0.00 0.00 0.00 77 1014.0
20260506153044 69 317 4.0 9.0 0.00 0.00 0.00 78 1014.1
20260506152544 69 227 4.0 10.0 0.00 0.00 0.00 78 1014.2
20260506152305 69 259 4.0 15.0 0.00 0.00 0.00 78 1014.2
20260506151800 69 228 5.0 15.0 0.00 0.00 0.00 78 1014.2
20260506151042 69 210 5.0 12.0 0.00 0.00 0.00 77 1014.3
20260506150543 69 242 5.0 11.0 0.00 0.00 0.00 77 1014.4
20260506150055 69 179 4.0 10.0 0.00 0.00 0.00 77 1014.6
20260506145542 69 190 5.0 18.0 0.00 0.00 0.00 77 1014.6
20260506145308 69 196 6.0 18.0 0.00 0.00 0.00 77 1014.4
20260506144540 69 232 6.0 15.0 0.00 0.00 0.00 78 1014.5
20260506144040 69 271 6.0 18.0 0.00 0.00 0.00 77 1014.4
20260506143541 69 178 5.0 18.0 0.00 0.00 0.00 76 1014.4
20260506143303 69 139 5.0 13.0 0.00 0.00 0.00 76 1014.3
20260506142528 69 257 5.0 12.0 0.00 0.00 0.00 77 1014.3
20260506142022 69 231 6.0 18.0 0.00 0.00 0.00 77 1014.2
20260506141529 69 186 6.0 18.0 0.00 0.00 0.00 78 1014.2
20260506141231 69 168 5.0 14.0 0.00 0.00 0.00 78 1014.0
20260506140503 69 237 5.0 23.0 0.00 0.00 0.00 77 1014.2
20260506135957 69 163 6.0 23.0 0.00 0.00 0.00 76 1014.1
20260506135453 69 247 5.0 18.0 0.00 0.00 0.00 74 1014.2
20260506134946 69 184 5.0 16.0 0.00 0.00 0.00 74 1014.0
20260506134439 69 215 6.0 17.0 0.00 0.00 0.00 74 1014.0
20260506134157 69 304 6.0 17.0 0.00 0.00 0.00 74 1014.2
20260506133428 69 250 6.0 16.0 0.00 0.00 0.00 74 1014.2
20260506132922 69 139 6.0 14.0 0.00 0.00 0.00 74 1013.9
20260506132416 69 221 5.0 15.0 0.00 0.00 0.00 74 1014.0
20260506131911 69 307 5.0 15.0 0.00 0.00 0.00 74 1014.0
20260506131417 69 265 4.0 13.0 0.00 0.00 0.00 75 1014.1
20260506130858 69 213 4.0 13.0 0.00 0.00 0.00 75 1014.0
20260506130352 69 190 5.0 13.0 0.00 0.00 0.00 76 1014.1
20260506125847 68 211 4.0 13.0 0.00 0.00 0.00 77 1014.2
20260506125340 67 227 4.0 11.0 0.00 0.00 0.00 78 1014.0
20260506124833 67 169 4.0 14.0 0.00 0.00 0.00 79 1013.9
20260506124329 66 182 4.0 14.0 0.00 0.00 0.00 79 1013.8
20260506123822 66 130 5.0 15.0 0.00 0.00 0.00 79 1013.8
20260506123317 66 185 5.0 15.0 0.00 0.00 0.00 79 1014.0
20260506122812 65 196 5.0 16.0 0.00 0.00 0.00 79 1014.0
20260506122316 65 198 4.0 16.0 0.00 0.00 0.00 79 1014.2
20260506121757 65 222 3.0 8.0 0.00 0.00 0.00 79 1014.3
20260506121253 65 177 3.0 6.0 0.00 0.00 0.00 79 1014.4
20260506120751 65 230 4.0 11.0 0.00 0.00 0.00 79 1014.3
20260506120510 65 232 4.0 13.0 0.00 0.00 0.00 79 1014.3
20260506115748 65 186 4.0 13.0 0.00 0.00 0.00 79 1014.4
20260506115249 64 217 4.0 11.0 0.00 0.00 0.00 80 1014.4
20260506114749 64 192 3.0 8.0 0.00 0.00 0.00 79 1014.4
20260506114731 64 231 4.0 12.0 0.00 0.00 0.00 79 1014.4
20260506113745 64 174 4.0 12.0 0.00 0.00 0.00 80 1014.5
20260506113240 64 179 5.0 14.0 0.00 0.00 0.00 80 1014.3
20260506112735 64 268 4.0 14.0 0.00 0.00 0.00 80 1014.3
20260506112446 63 220 4.0 12.0 0.00 0.00 0.00 80 1014.4
20260506111722 63 203 5.0 12.0 0.00 0.00 0.00 80 1014.4
20260506111216 63 53 4.0 11.0 0.00 0.00 0.00 80 1014.5
20260506111156 63 257 3.0 11.0 0.00 0.00 0.00 80 1014.6
20260506110426 63 219 3.0 11.0 0.00 0.00 0.00 80 1014.5
20260506105657 63 203 3.0 11.0 0.00 0.00 0.00 80 1014.5
20260506105152 62 264 2.0 7.0 0.00 0.00 0.00 81 1014.4
20260506104645 62 355 2.0 12.0 0.00 0.00 0.00 81 1014.4
20260506104140 62 269 3.0 12.0 0.00 0.00 0.00 81 1014.2
20260506103855 62 203 3.0 9.0 0.00 0.00 0.00 81 1014.2
20260506103345 62 355 2.0 8.0 0.00 0.00 0.00 81 1014.1
20260506103058 62 192 2.0 9.0 0.00 0.00 0.00 81 1014.3
20260506102116 62 152 2.0 9.0 0.00 0.00 0.00 81 1014.2
20260506101610 61 226 2.0 10.0 0.00 0.00 0.00 81 1014.1
20260506101103 61 140 3.0 10.0 0.00 0.00 0.00 81 1014.1
20260506100557 61 205 3.0 9.0 0.00 0.00 0.00 81 1014.0
20260506100051 61 142 3.0 8.0 0.00 0.00 0.00 81 1014.1
20260506095546 61 199 3.0 8.0 0.00 0.00 0.00 81 1014.1
20260506095254 61 182 2.0 5.0 0.00 0.00 0.00 81 1013.9
20260506094533 61 197 2.0 5.0 0.00 0.00 0.00 81 1013.9
20260506094029 61 3 2.0 6.0 0.00 0.00 0.00 81 1014.0
20260506093522 61 192 2.0 6.0 0.00 0.00 0.00 81 1014.0
20260506093243 61 201 2.0 6.0 0.00 0.00 0.00 81 1014.1
20260506092521 62 169 2.0 6.0 0.00 0.00 0.00 80 1014.2
20260506092022 62 180 2.0 6.0 0.00 0.00 0.00 80 1014.1
20260506091522 62 43 1.0 5.0 0.00 0.00 0.00 80 1014.0
20260506091253 62 190 2.0 6.0 0.00 0.00 0.00 80 1014.2
20260506090739 62 153 2.0 6.0 0.00 0.00 0.00 80 1014.4
20260506090018 62 159 2.0 9.0 0.00 0.00 0.00 80 1014.4
20260506085516 62 153 3.0 9.0 0.00 0.00 0.00 79 1014.5